Regional Weather Roundup
Issued by NWS

Home | Current Version | Previous Version | Graphics & Text | Print | Product List | Glossary On
Versions: 1 2 3 4 5 6 7 8 9 10 11 12 13 14 15 16 17 18 19 20 21 22 23 24 25 26 27 28 29 30 31 32 33 34 35 36 37 38 39 40 41 42 43 44 45 46 47 48 49 50
000
ASUS43 KFSD 280002
RWRSD

WEATHER ROUNDUP FOR SOUTH DAKOTA
NATIONAL WEATHER SERVICE SIOUX FALLS SD
700 PM CDT SAT MAY 27 2017

NOTE: "FAIR" INDICATES FEW OR NO CLOUDS BELOW 12,000 FEET WITH NO
SIGNIFICANT WEATHER AND/OR OBSTRUCTIONS TO VISIBILITY.


SDZ001>005-009-010-012>017-280100-
NORTHWEST AND NORTH CENTRAL SOUTH DAKOTA

CITY           SKY/WX    TMP DP  RH WIND       PRES   REMARKS
BUFFALO          N/A     67  42  40 W26G35    29.89F
MOBRIDGE       LGT RAIN  69  41  36 NW14      29.83R
$$

SDZ012>016-024>037-041>051-057-063-072>074-280100-
SOUTHWEST AND SOUTH CENTRAL SOUTH DAKOTA

CITY           SKY/WX    TMP DP  RH WIND       PRES   REMARKS
RAPID CTY ARPT MOSUNNY   71  34  25 NW14      29.99S
PIERRE         SUNNY     74  36  25 NW16G22   29.87S
CUSTER         MOSUNNY   59  31  34 W16G23    30.10R
ELLSWORTH AFB  MOSUNNY   71  35  26 NW20G26   29.98F
PHILIP         SUNNY     73  36  25 NW15      29.93S
PINE RIDGE     SUNNY     66  43  43 W16       30.03S
SPEARFISH      FAIR      64  34  32 NW13G23   30.04S
WINNER         FAIR      72  47  40 W12       29.92F
$$

SDZ004>011-016>023-039-040-280100-
NORTHEAST SOUTH DAKOTA

CITY           SKY/WX    TMP DP  RH WIND       PRES   REMARKS
ABERDEEN       PTSUNNY   76  35  22 NW16G24   29.80S
WATERTOWN      MOSUNNY   65  45  48 SW12      29.85F
BROOKINGS      CLOUDY    66  48  52 W9        29.89S
SISSETON         N/A     71  43  36 SW16G24   29.79F
$$

SDZ017-020-022-023-036>040-048>070-280100-
SOUTHEAST SOUTH DAKOTA

CITY           SKY/WX    TMP DP  RH WIND       PRES   REMARKS
SIOUX FALLS    CLOUDY    67  50  54 VRB5      29.90S
HURON          PTSUNNY   72  44  36 SW7       29.85F
CHAMBERLAIN    SUNNY     72  48  42 SW10G18   29.90S
MITCHELL       MOSUNNY   70  47  43 SW8       29.90F
YANKTON        CLOUDY    64  51  62 W7        29.93F
$$

ABBREVIATIONS USED IN REMARKS
   TC - TEMPERATURE IN CELSIUS
  WCI - WIND CHILL INDEX
   HX - HEAT INDEX
  VSB - VISIBILITY





USA.gov is the U.S. government's official web portal to all federal, state and local government web resources and services.